This is the latest recevied weather packets stored in our database for station/object S51UL-6. If no packets are shown the sender has not sent any weather packets the latest 1 day(s).
| Time | Temp. | Humidity | Pressure | Rain* | Wind** | Luminosity | Snow |
|---|---|---|---|---|---|---|---|
| 1777993408 | 19.44° C | 52% | 1011.6 hPa | 0 mm | 0.89 m/s, 225° | - | - |
| 1777993109 | 19.44° C | 51% | 1011.6 hPa | 0 mm | 0.89 m/s, 158° | - | - |
| 1777992809 | 20° C | 50% | 1011.6 hPa | 0 mm | 2.24 m/s, 158° | - | - |
| 1777992509 | 20° C | 50% | 1011.7 hPa | 0 mm | 1.79 m/s, 180° | - | - |
| 1777992209 | 20° C | 50% | 1011.6 hPa | 0 mm | 1.79 m/s, 158° | - | - |
| 1777991909 | 20° C | 50% | 1011.7 hPa | 0 mm | 3.13 m/s, 158° | - | - |
| 1777991609 | 20° C | 50% | 1011.7 hPa | 0 mm | 4.47 m/s, 180° | - | - |
| 1777991309 | 19.44° C | 51% | 1011.6 hPa | 0 mm | 3.13 m/s, 180° | - | - |
| 1777990709 | 19.44° C | 50% | 1011.5 hPa | 0 mm | 1.79 m/s, 135° | - | - |
| 1777990409 | 19.44° C | 50% | 1011.5 hPa | 0 mm | 1.34 m/s, 158° | - | - |
| 1777990109 | 20° C | 50% | 1011.7 hPa | 0 mm | 3.13 m/s, 158° | - | - |
| 1777989809 | 20° C | 49% | 1011.6 hPa | 0 mm | 2.24 m/s, 158° | - | - |
| 1777989509 | 20° C | 49% | 1011.7 hPa | 0 mm | 1.79 m/s, 158° | - | - |
| 1777989209 | 20° C | 49% | 1011.8 hPa | 0 mm | 1.34 m/s, 180° | - | - |
| 1777988910 | 20° C | 48% | 1011.7 hPa | 0 mm | 1.79 m/s, 180° | - | - |
| 1777988310 | 20.56° C | 48% | 1011.6 hPa | 0 mm | 1.79 m/s, 158° | - | - |
| 1777987710 | 20.56° C | 49% | 1011.7 hPa | 0 mm | 1.79 m/s, 158° | - | - |
| 1777987410 | 20.56° C | 48% | 1011.8 hPa | 0 mm | 1.79 m/s, 158° | - | - |
| 1777987110 | 20.56° C | 49% | 1011.9 hPa | 0 mm | 1.79 m/s, 158° | - | - |
| 1777986810 | 20.56° C | 48% | 1012 hPa | 0 mm | 2.68 m/s, 158° | - | - |
| 1777986510 | 20.56° C | 49% | 1012 hPa | 0 mm | 1.34 m/s, 158° | - | - |
| 1777986210 | 20.56° C | 49% | 1012.1 hPa | 0 mm | 1.34 m/s, 135° | - | - |
| 1777985910 | 20.56° C | 48% | 1012.1 hPa | 0 mm | 2.24 m/s, 135° | - | - |
| 1777985611 | 20° C | 48% | 1012.2 hPa | 0 mm | 0.45 m/s, 135° | - | - |
| 1777984710 | 20° C | 48% | 1012.3 hPa | 0 mm | 1.79 m/s, 180° | - | - |
* Rain latest hour (hover to see other rain measurements)
** Current wind speed in m/s (hover to see current wind gust speed)